Weather in Lviv

Ukraine / Lviv District     49˚50′22″N   24˚01′46″E
temp.,
°C
wind,
m/s
gust,
m/s
humid.,
%
clouds,
%
prec.,
mm/h
press.,
hPa
HPBL,
m
28 november, sat
sat2823:00+1˚w4898100 0.1 1022320
02:00+1˚w3795100 0.1 1020259
05:00+1˚w489693 0.0 1019316
08:00+1˚w589395 0.0 1019575
11:00+1˚w5895100 0.6 1020525
14:00+1˚w5892100 0.8 1019522
17:00w5997100 0.5 1019461
20:00−1˚n4695100 1.8 1020348
29 november, sun
sun2923:00−1˚nw2497100 0.3 1020234
02:00−1˚wnw2397100 0.7 1020233
05:00−2˚w2597100 0.4 1020249
08:00−2˚w3597100 0.8 1020279
11:00−1˚w2389100 0.0 1021388
14:00w2287100 0.3 1021380
17:00−2˚w229493 0.1 102131
20:00−3˚w239671 0.1 102237
30 november, mon
mon3023:00−3˚w249843 0.0 102387
02:00−3˚w349856 0.1 1024109
05:00−3˚w259878 0.0 1024144
08:00−2˚w249486 0.1 1026280
11:00−1˚w348396 0.1 1027519
14:00−1˚w347694 0.1 1027684
17:00−3˚w228927 0.0 102824
20:00−4˚sw119016 0.0 102921
1 december, tue
tue123:00−4˚s22910 0.0 102923
02:00−5˚sse22910 0.0 102822
05:00−5˚sse23920 0.0 102854
08:00−5˚se35920 0.0 1028115
11:00−2˚se48790 0.0 1027383
14:00−1˚se48740 0.0 1026458
17:00−4˚ese35840 0.0 1026114
20:00−4˚se49860 0.0 1027258
2 december, wed
wed223:00−5˚ese39870 0.0 1027263
02:00−5˚ese37890 0.0 1026178
05:00−5˚ese36920 0.0 1026148
08:00−6˚ese36950 0.0 1026142
11:00−2˚ese479148 0.0 1026413
14:00−1˚ese468874 0.0 1024526
17:00−1˚ese3792100 0.0 1024434
20:00−1˚se4990100 0.0 1025557